Weather in Dobroe

Russia / Lipetsk Oblast     52°51′52″N   39°48′34″E
temp.,
°C
wind,
m/s
gust,
m/s
humid.,
%
clouds,
%
prec.,
mm/h
press.,
hPa
HPBL,
m
17 may, mon
mon1700:00+17ne3692100 1.8 1012101
03:00+16ene349230 1.8 101265
06:00+16e36865 0.0 1011139
09:00+23se485962 0.0 1011409
12:00+26se6104285 0.0 1011960
15:00+26ese7114983 0.0 10101360
18:00+24se61360100 0.0 1010672
21:00+20ese61566100 0.0 1010384
18 may, tue
tue1800:00+19ese6165660 0.0 1009381
03:00+17ese514571 0.0 1009315
06:00+15ese4106998 0.0 1009229
09:00+21se59525 0.0 1009426
12:00+26ese610414 0.0 1008894
15:00+27se7135094 0.0 10071618
18:00+23sse51158100 0.0 1007670
21:00+19sse3571100 0.0 1008118
19 may, wed
wed1900:00+17s128693 0.0 100961
03:00+15sse3487100 0.0 1009101
06:00+16sse2486100 0.2 1008144
09:00+20sse2365100 0.2 1008564
12:00+22se346196 0.0 10081039
15:00+24sse485339 0.1 10071992
18:00+21s366942 0.4 1007395
21:00+17s33845 1.1 100634
20 may, thu
thu2000:00+15ssw2396100 4.1 1007135
03:00+13ssw259388 4.1 1007136
06:00+13sse2591100 0.0 1007338
09:00+15sse4682100 0.3 1007691
12:00+18sse577292 1.8 10071176
15:00+18s676888 3.3 10071299
18:00+17ssw57720 0.3 1007938
21:00+14s498674 0.5 1008389
21 may, fri
fri2100:00+12ssw49910 0.0 1010289
03:00+11s3995100 0.0 1010245
06:00+14ssw6138099 0.0 1010825
09:00+13ssw61388100 0.7 1011928
12:00+17ssw7117399 0.8 10111470
15:00+18sw7117222 2.3 10121292
18:00+17wsw6117397 0.6 10131222
21:00+12w71470100 0.6 1016852